Skip Page Navigation
NASA JPL Caltech
NASA Logo - Jet Propulsion Laboratory + View the NASA Portal
+ Near-Earth Object (NEO) Program
Search JPL
JPL Home Earth Solar System Stars & Galaxies Technology
JPL Solar System Dynamics
BODIES ORBITS EPHEMERIDES TOOLS PHYSICAL DATA DISCOVERY FAQ SITE MAP
JPL Small-Body Database Browser
Search: [ help ]  
11540 (1992 PV3)
Classification: Main-belt Asteroid          SPK-ID: 2011540
Ephemeris | Orbit Diagram | Orbital Elements | Physical Parameters | Discovery Circumstances | Close-Approach Data ]

[ show orbit diagram ]
Orbital Elements at Epoch 2456400.5 (2013-Apr-18.0) TDB
Reference: JPL 1 (heliocentric ecliptic J2000)
 Element Value Uncertainty (1-sigma)   Units 
e .1613303980731838 5.2122e-08  
a 2.298858551186155 1.9077e-08 AU
q 1.92798278600935 1.2161e-07 AU
i 4.174900903811498 5.5722e-06 deg
node 106.1080928922491 8.3915e-05 deg
peri 193.9984449598236 8.5888e-05 deg
M 353.0686446087651 2.3298e-05 deg
tp 2456425.012209964345
(2013-May-12.51220996)
8.2565e-05 JED
period 1273.112557224126
3.49
1.5848e-05
4.339e-08
d
yr
n .2827715412570733 3.5199e-09 deg/d
Q 2.66973431636296 2.2155e-08 AU
  Orbit Determination Parameters
   # obs. used (total)      1046  
   data-arc span      13196 days (36.13 yr)  
   first obs. used      1977-02-19  
   last obs. used      2013-04-07  
   planetary ephem.      DE405  
   SB-pert. ephem.      SB405-CPV-2  
   condition code      0  
   fit RMS      .57171  
   data source      ORB  
   producer      Otto Matic  
   solution date      2013-Apr-29 13:44:57  

Additional Information
 Earth MOID = .912627 AU 
 T_jup = 3.572 
[ show covariance matrix ]

Ephemeris | Orbit Diagram | Orbital Elements | Physical Parameters | Discovery Circumstances | Close-Approach Data ]

Physical Parameter Table
Parameter Symbol Value Units Sigma Reference Notes
absolute magnitude H 14.4 mag n/a PDS3 (MPC 35843)  

11540 (1992 PV3)          Discovered 1992-Aug-05 by Holt, H. E. at Palomar (675)
Reference: 19990928/Numbers.arcLast Updated: 2004-04-19

[ show close-approach data ]
Alternate Designations
 1992 PV3 = 1977 DP7 = 1995 HQ 
Ephemeris | Orbit Diagram | Orbital Elements | Physical Parameters | Discovery Circumstances | Close-Approach Data ]
ABOUT SSD CREDITS/AWARDS PRIVACY/COPYRIGHT GLOSSARY LINKS
FirstGov 2013-Jun-20 09:10 UT
(server date/time)  
NASA Home Page
Site Manager:   Donald K. Yeomans
Webmaster  Alan B. Chamberlin